| time (UTC) | temp F | wind direction | speed MPH | gust MPH | rain 1hr in | rain 24hr in | rain mn in | humidity % | barometer mb |
| 20260507022556 | 47 | 203 | 0.0 | 1.0 | 0.00 | 0.01 | 0.01 | 74 | 1015.1 |
| 20260507021410 | 47 | 203 | 0.0 | 0.0 | 0.00 | 0.01 | 0.01 | 74 | 1015.1 |
| 20260507020203 | 48 | 203 | 0.0 | 0.0 | 0.00 | 0.01 | 0.01 | 72 | 1015.0 |
| 20260507014953 | 49 | 256 | 0.0 | 0.0 | 0.00 | 0.01 | 0.01 | 70 | 1014.9 |
| 20260507013738 | 50 | 256 | 0.0 | 1.0 | 0.00 | 0.01 | 0.01 | 67 | 1014.9 |
| 20260507012522 | 50 | 257 | 0.0 | 0.0 | 0.00 | 0.01 | 0.01 | 68 | 1014.8 |
| 20260507011241 | 50 | 257 | 0.0 | 3.0 | 0.00 | 0.01 | 0.01 | 67 | 1014.6 |
| 20260507010017 | 50 | 277 | 0.0 | 2.0 | 0.00 | 0.01 | 0.01 | 71 | 1014.6 |
| 20260507004801 | 50 | 277 | 0.0 | 0.0 | 0.00 | 0.01 | 0.01 | 69 | 1014.5 |
| 20260507003556 | 51 | 277 | 0.0 | 0.0 | 0.00 | 0.01 | 0.01 | 71 | 1014.3 |
| 20260507002335 | 52 | 277 | 0.0 | 0.0 | 0.00 | 0.03 | 0.01 | 71 | 1014.0 |
| 20260507001156 | 53 | 277 | 0.0 | 0.0 | 0.00 | 0.03 | 0.01 | 62 | 1013.9 |
| 20260507000023 | 53 | 36 | 0.0 | 2.0 | 0.00 | 0.04 | 0.01 | 59 | 1013.8 |
| 20260506234755 | 55 | 15 | 0.0 | 1.0 | 0.00 | 0.04 | 0.01 | 56 | 1014.0 |
| 20260506233534 | 55 | 294 | 0.0 | 0.0 | 0.00 | 0.06 | 0.01 | 59 | 1014.2 |
| 20260506232309 | 55 | 46 | 0.0 | 0.0 | 0.00 | 0.06 | 0.01 | 57 | 1014.1 |
| 20260506231059 | 55 | 126 | 0.0 | 2.0 | 0.00 | 0.07 | 0.01 | 54 | 1014.1 |
| 20260506225901 | 56 | 304 | 0.0 | 7.0 | 0.00 | 0.07 | 0.01 | 54 | 1014.0 |
| 20260506224645 | 56 | 277 | 0.0 | 4.0 | 0.00 | 0.07 | 0.01 | 56 | 1014.2 |
| 20260506223515 | 56 | 9 | 0.0 | 8.0 | 0.00 | 0.07 | 0.01 | 50 | 1014.1 |
| 20260506222306 | 56 | 335 | 0.0 | 8.0 | 0.00 | 0.07 | 0.01 | 52 | 1014.1 |
| 20260506221116 | 57 | 18 | 1.0 | 7.0 | 0.00 | 0.10 | 0.01 | 47 | 1014.0 |
| 20260506215939 | 57 | 296 | 3.0 | 11.0 | 0.00 | 0.10 | 0.01 | 49 | 1013.9 |
| 20260506214749 | 58 | 347 | 0.0 | 7.0 | 0.00 | 0.12 | 0.01 | 48 | 1013.8 |
| 20260506213616 | 58 | 101 | 0.0 | 6.0 | 0.00 | 0.13 | 0.01 | 51 | 1013.8 |
| 20260506212440 | 57 | 221 | 0.0 | 3.0 | 0.00 | 0.14 | 0.01 | 51 | 1013.8 |
| 20260506211200 | 57 | 233 | 0.0 | 8.0 | 0.00 | 0.14 | 0.01 | 44 | 1013.9 |
| 20260506210014 | 57 | 272 | 0.0 | 8.0 | 0.00 | 0.15 | 0.01 | 55 | 1014.1 |
| 20260506204814 | 58 | 355 | 1.0 | 9.0 | 0.00 | 0.15 | 0.01 | 50 | 1014.1 |
| 20260506203635 | 58 | 5 | 1.0 | 9.0 | 0.00 | 0.15 | 0.01 | 50 | 1014.2 |
| 20260506202410 | 57 | 302 | 3.0 | 11.0 | 0.00 | 0.15 | 0.01 | 45 | 1014.0 |
| 20260506201144 | 57 | 309 | 3.0 | 11.0 | 0.00 | 0.15 | 0.01 | 47 | 1014.2 |
| 20260506195922 | 58 | 5 | 1.0 | 8.0 | 0.00 | 0.15 | 0.01 | 48 | 1014.3 |
| 20260506194753 | 58 | 43 | 1.0 | 8.0 | 0.00 | 0.15 | 0.01 | 45 | 1014.5 |
| 20260506193623 | 56 | 317 | 1.0 | 4.0 | 0.00 | 0.15 | 0.01 | 43 | 1014.6 |
| 20260506192346 | 57 | 37 | 1.0 | 8.0 | 0.00 | 0.17 | 0.01 | 46 | 1014.6 |
| 20260506191110 | 56 | 290 | 1.0 | 8.0 | 0.00 | 0.17 | 0.01 | 47 | 1014.7 |
| 20260506185859 | 56 | 339 | 0.0 | 3.0 | 0.00 | 0.17 | 0.01 | 54 | 1014.6 |
| 20260506184659 | 56 | 260 | 1.0 | 6.0 | 0.00 | 0.17 | 0.01 | 52 | 1014.6 |
| 20260506183513 | 55 | 348 | 1.0 | 7.0 | 0.00 | 0.17 | 0.01 | 48 | 1014.6 |
| 20260506182240 | 55 | 12 | 0.0 | 8.0 | 0.00 | 0.17 | 0.01 | 47 | 1014.5 |
| 20260506181104 | 55 | 13 | 1.0 | 8.0 | 0.00 | 0.18 | 0.01 | 46 | 1014.6 |
| 20260506175835 | 55 | 347 | 1.0 | 4.0 | 0.00 | 0.19 | 0.01 | 54 | 1014.7 |
| 20260506174602 | 55 | 355 | 1.0 | 7.0 | 0.00 | 0.20 | 0.01 | 51 | 1014.6 |
| 20260506173354 | 56 | 308 | 1.0 | 7.0 | 0.00 | 0.22 | 0.01 | 48 | 1014.5 |
| 20260506172201 | 57 | 0 | 1.0 | 7.0 | 0.00 | 0.23 | 0.01 | 43 | 1014.3 |
| 20260506170958 | 55 | 332 | 1.0 | 12.0 | 0.00 | 0.23 | 0.01 | 44 | 1014.3 |
| 20260506165730 | 56 | 49 | 4.0 | 12.0 | 0.00 | 0.24 | 0.01 | 45 | 1014.3 |
| 20260506164514 | 56 | 47 | 3.0 | 11.0 | 0.00 | 0.24 | 0.01 | 44 | 1014.3 |
| 20260506163322 | 55 | 19 | 1.0 | 4.0 | 0.00 | 0.24 | 0.01 | 46 | 1014.4 |
| 20260506162102 | 55 | 328 | 1.0 | 9.0 | 0.00 | 0.24 | 0.01 | 47 | 1014.4 |
| 20260506160926 | 54 | 34 | 1.0 | 7.0 | 0.00 | 0.24 | 0.01 | 44 | 1014.6 |
| 20260506155737 | 55 | 333 | 3.0 | 9.0 | 0.00 | 0.24 | 0.01 | 45 | 1014.5 |
| 20260506154550 | 55 | 0 | 3.0 | 12.0 | 0.00 | 0.24 | 0.01 | 50 | 1014.7 |
| 20260506153417 | 55 | 342 | 4.0 | 12.0 | 0.00 | 0.24 | 0.01 | 45 | 1014.6 |
| 20260506152240 | 55 | 44 | 3.0 | 9.0 | 0.00 | 0.24 | 0.01 | 48 | 1014.6 |
| 20260506151018 | 54 | 318 | 3.0 | 9.0 | 0.00 | 0.24 | 0.01 | 45 | 1014.6 |
| 20260506145803 | 55 | 348 | 3.0 | 8.0 | 0.00 | 0.24 | 0.01 | 53 | 1014.5 |
| 20260506144547 | 54 | 33 | 3.0 | 11.0 | 0.00 | 0.24 | 0.01 | 51 | 1014.3 |
| 20260506143402 | 53 | 38 | 3.0 | 11.0 | 0.00 | 0.24 | 0.01 | 50 | 1014.3 |
| 20260506142203 | 52 | 17 | 3.0 | 9.0 | 0.00 | 0.24 | 0.01 | 57 | 1014.2 |
| 20260506141018 | 52 | 319 | 4.0 | 9.0 | 0.00 | 0.24 | 0.01 | 51 | 1014.0 |
| 20260506135844 | 52 | 55 | 3.0 | 7.0 | 0.00 | 0.24 | 0.01 | 58 | 1013.8 |
| 20260506134649 | 51 | 57 | 4.0 | 12.0 | 0.00 | 0.24 | 0.01 | 56 | 1013.7 |
| 20260506133416 | 51 | 0 | 3.0 | 12.0 | 0.00 | 0.24 | 0.01 | 58 | 1013.7 |
| 20260506132200 | 49 | 21 | 1.0 | 6.0 | 0.00 | 0.24 | 0.01 | 64 | 1013.5 |
| 20260506131011 | 49 | 49 | 1.0 | 6.0 | 0.00 | 0.24 | 0.01 | 63 | 1013.5 |
| 20260506125816 | 48 | 33 | 1.0 | 7.0 | 0.00 | 0.24 | 0.01 | 65 | 1013.4 |
| 20260506124535 | 47 | 11 | 1.0 | 7.0 | 0.00 | 0.24 | 0.01 | 68 | 1013.0 |
| 20260506123400 | 47 | 51 | 1.0 | 6.0 | 0.00 | 0.24 | 0.01 | 72 | 1013.0 |
| 20260506122226 | 47 | 15 | 3.0 | 8.0 | 0.00 | 0.24 | 0.01 | 75 | 1012.9 |
| 20260506120949 | 46 | 26 | 1.0 | 6.0 | 0.00 | 0.24 | 0.01 | 85 | 1012.8 |
| 20260506115723 | 45 | 312 | 1.0 | 6.0 | 0.00 | 0.24 | 0.01 | 90 | 1012.7 |
| 20260506114517 | 45 | 319 | 0.0 | 6.0 | 0.00 | 0.24 | 0.01 | 91 | 1012.6 |
| 20260506113339 | 44 | 32 | 0.0 | 3.0 | 0.00 | 0.24 | 0.01 | 91 | 1012.2 |
| 20260506112138 | 44 | 47 | 0.0 | 0.0 | 0.00 | 0.24 | 0.01 | 91 | 1012.2 |
| 20260506110908 | 44 | 47 | 0.0 | 0.0 | 0.00 | 0.24 | 0.01 | 90 | 1012.0 |
| 20260506105709 | 44 | 47 | 0.0 | 0.0 | 0.00 | 0.24 | 0.01 | 90 | 1011.6 |
| 20260506104434 | 45 | 47 | 0.0 | 0.0 | 0.00 | 0.24 | 0.01 | 90 | 1011.4 |
| 20260506103159 | 45 | 47 | 0.0 | 0.0 | 0.00 | 0.24 | 0.01 | 91 | 1011.3 |
| 20260506101941 | 46 | 47 | 0.0 | 0.0 | 0.00 | 0.24 | 0.01 | 91 | 1010.9 |
| 20260506100812 | 46 | 47 | 0.0 | 0.0 | 0.00 | 0.24 | 0.01 | 91 | 1010.9 |
| 20260506095549 | 46 | 47 | 0.0 | 0.0 | 0.00 | 0.24 | 0.01 | 91 | 1010.8 |
| 20260506094410 | 46 | 47 | 0.0 | 0.0 | 0.00 | 0.24 | 0.01 | 91 | 1010.5 |
| 20260506093214 | 45 | 47 | 0.0 | 0.0 | 0.00 | 0.24 | 0.01 | 91 | 1010.7 |
| 20260506092010 | 45 | 47 | 0.0 | 0.0 | 0.00 | 0.24 | 0.01 | 91 | 1010.6 |
| 20260506090818 | 45 | 47 | 0.0 | 0.0 | 0.00 | 0.24 | 0.01 | 90 | 1010.6 |
| 20260506085553 | 45 | 47 | 0.0 | 0.0 | 0.00 | 0.24 | 0.01 | 90 | 1010.7 |
| 20260506084335 | 45 | 47 | 0.0 | 0.0 | 0.00 | 0.24 | 0.01 | 90 | 1010.6 |
| 20260506083148 | 46 | 47 | 0.0 | 0.0 | 0.00 | 0.24 | 0.01 | 90 | 1010.6 |
| 20260506081946 | 46 | 47 | 0.0 | 0.0 | 0.00 | 0.24 | 0.01 | 90 | 1010.5 |
| 20260506080800 | 45 | 47 | 0.0 | 0.0 | 0.00 | 0.24 | 0.01 | 90 | 1010.5 |
| 20260506073200 | 45 | 47 | 0.0 | 0.0 | 0.00 | 0.24 | 0.01 | 90 | 1010.0 |
| 20260506071958 | 45 | 47 | 0.0 | 1.0 | 0.00 | 0.24 | 0.01 | 90 | 1009.5 |
| 20260506070739 | 45 | 47 | 0.0 | 2.0 | 0.00 | 0.24 | 0.01 | 90 | 1010.1 |
| 20260506061955 | 46 | 116 | 0.0 | 1.0 | 0.00 | 0.24 | 0.00 | 90 | 1010.1 |
| 20260506060748 | 46 | 342 | 0.0 | 1.0 | 0.00 | 0.27 | 0.00 | 90 | 1010.5 |
| 20260506050847 | 46 | 31 | 0.0 | 0.0 | 0.00 | 0.38 | 0.00 | 90 | 1010.8 |
| 20260506044440 | 46 | 31 | 0.0 | 0.0 | 0.00 | 0.39 | 0.00 | 90 | 1010.7 |
| 20260506043301 | 46 | 31 | 0.0 | 0.0 | 0.00 | 0.39 | 0.00 | 90 | 1010.4 |
| 20260506042116 | 46 | 31 | 0.0 | 0.0 | 0.00 | 0.39 | 0.00 | 89 | 1010.3 |
| 20260506040936 | 46 | 31 | 0.0 | 0.0 | 0.00 | 0.39 | 0.00 | 89 | 1010.2 |
| 20260506035733 | 46 | 31 | 0.0 | 0.0 | 0.00 | 0.39 | 0.38 | 89 | 1010.2 |
| 20260506034522 | 46 | 31 | 0.0 | 0.0 | 0.00 | 0.39 | 0.38 | 89 | 1010.4 |
| 20260506033350 | 46 | 31 | 0.0 | 0.0 | 0.00 | 0.39 | 0.38 | 89 | 1010.1 |
| 20260506032147 | 46 | 31 | 0.0 | 0.0 | 0.00 | 0.39 | 0.38 | 88 | 1010.1 |
| 20260506030953 | 46 | 31 | 0.0 | 0.0 | 0.00 | 0.38 | 0.38 | 88 | 1010.2 |
| 20260506025815 | 46 | 31 | 0.0 | 0.0 | 0.00 | 0.38 | 0.38 | 88 | 1010.1 |
| 20260506024617 | 46 | 31 | 0.0 | 0.0 | 0.00 | 0.38 | 0.38 | 88 | 1010.2 |